Short Creek, WV

12:48 PM EST on February 23, 2017 (GMT -0500)
Wheeling-Ohio County

Weather History for KHLG - February, 2012

Change the Weather History Date:

Wednesday, February 15, 2012

  Actual Average Record
Temperature  
Mean Temperature 37 °F 32 °F  
Max Temperature 42 °F 40 °F 66 °F (1949)
Min Temperature 32 °F 24 °F -4 °F (2015)
Degree Days  
Heating Degree Days 28 33  
Month to date heating degree days 494 513  
Since 1 July heating degree days 3059 3755  
Cooling Degree Days 0    
Month to date cooling degree days 0  
Year to date cooling degree days 0  
Moisture  
Dew Point 29 °F    
Average Humidity 79    
Maximum Humidity 96    
Minimum Humidity 62    
Precipitation  
Precipitation 0.00 in 0.06 in 0.54 in (1990)
Month to date precipitation 0.48 1.14  
Sea Level Pressure  
Sea Level Pressure 30.21 in    
Wind  
Wind Speed 7 mph (SW)    
Max Wind Speed 14 mph    
Max Gust Speed 18 mph    
Visibility 9 miles    
Events      
T = Trace of Precipitation, MM = Missing Value Source: NWS Daily Summary

Daily Weather History Graph

Daily Weather History Graph

Search for Another Location

Airport or City:

Trip Planner

Search our weather history database for the weather conditions in past years. The results will help you decide how hot, cold, wet, or windy it might be!

Date:

Astronomy

Feb. 15, 2012 Rise Set
Actual Time 7:16 AM EST 5:57 PM EST
Civil Twilight 6:48 AM EST 6:25 PM EST
Nautical Twilight 6:16 AM EST 6:57 PM EST
Astronomical Twilight 5:45 AM EST 7:28 PM EST
Moon 2:08 AM EST (2/15) 11:51 AM EST (2/15)
Length of Visible Light 11h 37m
Length of Day
10h 41m
Last Quarter, 39% of the Moon is Illuminated
Feb 15
Last Quarter
Feb 21
New
Feb 29
First Quarter
Mar 8
Full
Mar 14
Last Quarter

Hourly Weather History & Observations

Time (EST) Temp. Windchill Dew Point Humidity Pressure Visibility Wind Dir Wind Speed Gust Speed Precip Events Conditions
12:53 AM 33.1 °F 25.5 °F 30.9 °F 92% 30.10 in 7.0 mi WSW 9.2 mph - N/A   Overcast
1:53 AM 33.1 °F 25.5 °F 30.9 °F 92% 30.13 in 7.0 mi West 9.2 mph - N/A   Overcast
2:42 AM 33.8 °F 25.8 °F 30.2 °F 87% 30.10 in 7.0 mi West 10.4 mph - N/A   Overcast
2:53 AM 33.1 °F 24.9 °F 30.0 °F 89% 30.14 in 7.0 mi West 10.4 mph - N/A   Overcast
3:15 AM 33.8 °F 25.3 °F 30.2 °F 87% 30.11 in 7.0 mi West 11.5 mph - N/A   Overcast
3:53 AM 33.1 °F 23.9 °F 30.0 °F 89% 30.17 in 7.0 mi West 12.7 mph - N/A   Overcast
4:53 AM 33.1 °F 26.1 °F 28.9 °F 85% 30.19 in 7.0 mi West 8.1 mph - N/A   Overcast
5:03 AM 33.8 °F 27.0 °F 28.4 °F 81% 30.15 in 8.0 mi West 8.1 mph - N/A   Overcast
5:53 AM 32.0 °F 25.6 °F 28.9 °F 88% 30.21 in 9.0 mi WSW 6.9 mph - N/A   Overcast
6:53 AM 32.0 °F 25.6 °F 28.9 °F 88% 30.25 in 8.0 mi WSW 6.9 mph - N/A   Overcast
7:53 AM 32.0 °F 24.8 °F 28.9 °F 88% 30.27 in 8.0 mi West 8.1 mph - N/A   Overcast
8:53 AM 33.1 °F 27.7 °F 27.0 °F 78% 30.29 in 10.0 mi West 5.8 mph - N/A   Overcast
9:53 AM 33.1 °F 28.7 °F 27.0 °F 78% 30.30 in 10.0 mi West 4.6 mph - N/A   Overcast
10:53 AM 34.0 °F 28.0 °F 27.0 °F 75% 30.31 in 10.0 mi WSW 6.9 mph - N/A   Overcast
11:53 AM 35.1 °F 32.2 °F 28.0 °F 76% 30.30 in 10.0 mi SW 3.5 mph - N/A   Overcast
12:53 PM 37.0 °F 34.5 °F 28.9 °F 73% 30.27 in 10.0 mi Variable 3.5 mph - N/A   Overcast
1:32 PM 39.2 °F 34.2 °F 28.4 °F 65% 30.22 in 10.0 mi Variable 6.9 mph - N/A   Partly Cloudy
2:35 PM 39.2 °F 34.2 °F 30.2 °F 70% 30.22 in 10.0 mi Variable 6.9 mph - N/A   Mostly Cloudy
2:53 PM 42.1 °F 38.4 °F 30.9 °F 65% 30.25 in 10.0 mi South 5.8 mph - N/A   Scattered Clouds
3:53 PM 41.0 °F 36.4 °F 30.0 °F 65% 30.24 in 10.0 mi SSE 6.9 mph - N/A   Clear
4:53 PM 41.0 °F 37.1 °F 30.0 °F 65% 30.24 in 10.0 mi South 5.8 mph - N/A   Clear
5:53 PM 39.9 °F 36.7 °F 28.9 °F 65% 30.24 in 10.0 mi SE 4.6 mph - N/A   Partly Cloudy
6:53 PM 39.0 °F 34.0 °F 30.0 °F 70% 30.24 in 10.0 mi East 6.9 mph - N/A   Overcast
7:53 PM 39.0 °F 35.7 °F 30.0 °F 70% 30.24 in 10.0 mi ESE 4.6 mph - N/A   Overcast
8:53 PM 39.0 °F 34.8 °F 30.0 °F 70% 30.23 in 10.0 mi SE 5.8 mph - N/A   Overcast
9:53 PM 39.0 °F 32.8 °F 30.0 °F 70% 30.21 in 10.0 mi ESE 9.2 mph - N/A   Overcast
10:53 PM 39.9 °F - 30.0 °F 68% 30.20 in 10.0 mi Calm Calm - N/A   Overcast
11:53 PM 37.9 °F 31.5 °F 30.9 °F 76% 30.16 in 10.0 mi ESE 9.2 mph - N/A   Overcast